This demonstration page uses our WeatherBlox Daily Observations layout. Learn more.

Hourly Observations for January 3, 2015

Temp ( °F °C ) Dew Point ( °F °C ) Humidity (%) Winds ( mph kmh ) Pressure ( in mb ) Visibility ( mi km ) Precip ( " mm )
12:15 am 00:15 Clear 17 -8.2 13 -10.4 84 84 Calm 30.06 1018 10 16.0934 0 0
12:35 am 00:35 Clear 17 -8.2 13 -10.5 84 84 SW 6 9 30.03 1017 10 16.0934 0 0
12:55 am 00:55 Clear 18 -8 14 -10.2 84 84 SW 7 11 30.06 1018 10 16.0934 0 0
1:15 am 01:15 Clear 18 -7.7 14 -10.1 83 83 SW 6 9 30.03 1017 10 16.0934 0 0
1:35 am 01:35 Clear 18 -7.6 14 -10 83 83 SW 6 9 30.03 1017 10 16.0934 0 0
1:55 am 01:55 Clear 19 -7.5 14 -10 83 83 SW 6 9 30 1016 10 16.0934 0 0
2:15 am 02:15 Clear 18 -7.6 14 -10.1 82 82 SW 5 7 29.97 1015 10 16.0934 0 0
2:35 am 02:35 Clear 18 -7.7 14 -10.2 82 82 SSW 7 11 29.97 1015 10 16.0934 0 0
2:55 am 02:55 Clear 19 -7.3 14 -10.1 81 81 SW 5 7 29.97 1015 10 16.0934 0 0
3:15 am 03:15 Clear 19 -7.1 14 -10 80 80 SW 7 11 29.97 1015 10 16.0934 0 0
3:35 am 03:35 Clear 19 -7 14 -10 79 79 SW 7 11 29.97 1015 10 16.0934 0 0
3:55 am 03:55 Clear 18 -7.8 13 -10.3 82 82 SW 7 11 29.97 1015 10 16.0934 0 0
4:15 am 04:15 Clear 19 -7.5 14 -10.1 82 82 W 6 9 29.94 1014 10 16.0934 0 0
4:35 am 04:35 Clear 19 -7.4 14 -10 82 82 WSW 5 7 29.94 1014 10 16.0934 0 0
4:55 am 04:55 Clear 19 -7.2 14 -10.1 80 80 WSW 3 6 29.94 1014 10 16.0934 0 0
5:15 am 05:15 Clear 19 -7.5 14 -10.1 82 82 Calm 29.94 1014 10 16.0934 0 0
5:35 am 05:35 Clear 19 -7.3 14 -9.9 82 82 SW 5 7 29.94 1014 10 16.0934 0 0
5:55 am 05:55 Clear 19 -7 15 -9.7 81 81 SW 3 6 29.94 1014 10 16.0934 0 0
6:15 am 06:15 Clear 19 -7.1 14 -10.1 79 79 WSW 3 6 29.94 1014 10 16.0934 0 0
6:35 am 06:35 Clear 21 -6 15 -9.3 78 78 W 5 7 29.94 1014 10 16.0934 0 0
6:55 am 06:55 Clear 23 -5.2 16 -9 75 75 W 5 7 29.91 1013 10 16.0934 0 0
7:15 am 07:15 Clear 21 -6.2 15 -9.6 77 77 Calm 29.94 1014 10 16.0934 0 0
7:35 am 07:35 Clear 21 -5.9 16 -9.1 78 78 SW 5 7 29.94 1014 10 16.0934 0 0
7:55 am 07:55 Clear 21 -6.3 15 -9.4 79 79 SW 5 7 29.94 1014 10 16.0934 0 0
8:15 am 08:15 Sunny 21 -6 16 -9 80 80 SW 3 6 29.94 1014 10 16.0934 0 0
8:35 am 08:35 Sunny 22 -5.6 16 -8.8 78 78 WSW 5 7 29.94 1014 10 16.0934 0 0
8:55 am 08:55 Sunny 22 -5.3 16 -8.8 77 77 W 9 15 29.91 1013 10 16.0934 0 0
9:15 am 09:15 Sunny 23 -5.1 17 -8.5 77 77 W 7 11 29.91 1013 10 16.0934 0 0
9:35 am 09:35 Sunny 23 -4.8 17 -8.3 77 77 W 5 7 29.91 1013 10 16.0934 0 0
9:55 am 09:55 Sunny 25 -4.1 18 -7.8 76 76 WNW 3 6 29.91 1013 10 16.0934 0 0
10:15 am 10:15 Sunny 26 -3.4 19 -7.1 76 76 NW 10 17 29.91 1013 10 16.0934 0 0
10:35 am 10:35 Sunny 27 -2.9 20 -6.5 77 77 WNW 9 15 29.91 1013 10 16.0934 0 0
10:55 am 10:55 Sunny 30 -1.2 23 -5.2 75 75 NW 10 17 29.88 1012 10 16.0934 0 0
11:15 am 11:15 Sunny 31 -0.7 22 -5.5 70 70 NW 13 20 29.91 1013 10 16.0934 0 0
11:35 am 11:35 Sunny 30 -1 22 -5.7 71 71 NW 9 15 29.88 1012 10 16.0934 0 0
11:55 am 11:55 Sunny 31 -0.6 22 -5.4 70 70 NNW 14 22 29.88 1012 10 16.0934 0 0
12:15 pm 12:15 Sunny 32 0 24 -4.4 73 73 N 17 28 29.88 1012 10 16.0934 0 0
12:35 pm 12:35 Sunny 33 0.7 25 -3.8 72 72 N 18 30 29.85 1011 10 16.0934 0 0
12:55 pm 12:55 Sunny 33 0.5 25 -3.7 74 74 N 21 33 29.85 1011 10 16.0934 0 0
1:15 pm 13:15 Mostly Cloudy 32 0.2 26 -3.3 78 78 N 21 33 29.88 1012 10 16.0934 0 0
1:35 pm 13:35 Cloudy 32 0.1 27 -2.6 82 82 N 25 41 29.88 1012 10 16.0934 0 0
1:55 pm 13:55 Cloudy 32 0.1 28 -2.1 85 85 N 28 44 29.88 1012 10 16.0934 0 0
2:15 pm 14:15 Cloudy 32 0 28 -2 87 87 N 29 46 29.88 1012 10 16.0934 0 0
2:35 pm 14:35 Cloudy 27 -3 23 -5 86 86 N 35 56 29.94 1014 7 11.26538 0 0
2:55 pm 14:55 Cloudy 23 -5.1 18 -7.7 82 82 N 31 50 30 1016 10 16.0934 0 0
3:15 pm 15:15 Cloudy 21 -6.2 16 -9.1 80 80 N 26 43 30.03 1017 10 16.0934 0 0
3:35 pm 15:35 Windy with Snow Likely 19 -7.5 13 -10.7 78 78 N 28 44 30.06 1018 7 11.26538 0 0
3:55 pm 15:55 Windy with Snow Likely 16 -8.7 10 -12.2 76 76 N 29 46 30.09 1019 5 8.0467 0 0
4:15 pm 16:15 Windy with Snow Likely 15 -9.4 8 -13.1 75 75 N 30 48 30.12 1020 7 11.26538 0 0
4:35 pm 16:35 Windy with Snow Likely 14 -10 8 -13.5 76 76 N 22 35 30.18 1022 4 6.43736 0 0
4:55 pm 16:55 Cloudy 13 -10.8 5 -15.1 71 71 N 31 50 30.21 1023 10 16.0934 0 0
5:15 pm 17:15 Cloudy 12 -11.1 4 -15.4 71 71 N 33 54 30.21 1023 10 16.0934 0 0
5:35 pm 17:35 Cloudy 12 -11.2 4 -15.3 72 72 N 21 33 30.24 1024 10 16.0934 0 0
5:55 pm 17:55 Cloudy 11 -11.4 4 -15.5 72 72 N 24 39 30.27 1025 10 16.0934 0 0
6:15 pm 18:15 Cloudy with Light Snow 11 -11.7 4 -15.5 74 74 N 17 28 30.3 1026 5 8.0467 0 0
6:35 pm 18:35 Windy with Snow Likely 10 -12 5 -15.1 78 78 N 29 46 30.3 1026 1.5 2.41401 0 0
6:55 pm 18:55 Cloudy with Snow 9 -12.6 5 -14.9 83 83 N 25 41 30.33 1027 0.5 0.80467 0 0
7:15 pm 19:15 Cloudy with Snow 9 -12.6 6 -14.7 84 84 N 20 31 30.33 1027 0.75 1.207005 0 0
7:35 pm 19:35 Cloudy with Snow 9 -12.6 5 -14.9 83 83 N 25 41 30.36 1028 0.75 1.207005 0 0
7:55 pm 19:55 Cloudy with Snow 9 -12.7 6 -14.7 85 85 N 22 35 30.36 1028 0.5 0.80467 0 0
8:15 pm 20:15 Cloudy with Snow 9 -12.7 5 -14.8 84 84 NNW 26 43 30.36 1028 0.5 0.80467 0 0
8:35 pm 20:35 Cloudy with Snow 9 -12.7 5 -15 83 83 N 23 37 30.36 1028 0.75 1.207005 0 0
8:55 pm 20:55 Cloudy with Snow 9 -12.7 5 -15 83 83 N 24 39 30.36 1028 0.75 1.207005 0 0
9:15 pm 21:15 Windy with Snow Likely 9 -12.6 5 -14.8 84 84 NNW 26 43 30.39 1029 1 1.60934 0 0
9:35 pm 21:35 Cloudy with Snow 9 -12.6 5 -14.8 84 84 NNW 25 41 30.39 1029 0.75 1.207005 0 0
9:55 pm 21:55 Windy with Snow Likely 9 -12.7 5 -15.1 82 82 N 25 41 30.42 1030 1 1.60934 0 0
10:15 pm 22:15 Windy with Snow Likely 9 -12.7 4 -15.3 81 81 NNW 28 44 30.42 1030 1.25 2.011675 0 0
10:35 pm 22:35 Windy with Snow Likely 9 -12.7 4 -15.3 81 81 NNW 23 37 30.42 1030 1.25 2.011675 0 0
10:55 pm 22:55 Windy with Snow Likely 9 -13 4 -15.7 80 80 NNW 29 46 30.45 1031 1.25 2.011675 0 0
11:15 pm 23:15 Cloudy with Light Snow 8 -13.3 3 -16 80 80 N 18 30 30.5 1033 1.25 2.011675 0 0
11:35 pm 23:35 Cloudy with Light Snow 8 -13.1 4 -15.6 82 82 NNW 16 26 30.5 1033 2.5 4.02335 0 0
11:55 pm 23:55 Windy with Snow Likely 8 -13.5 3 -16.3 80 80 NNW 20 31 30.5 1033 2.5 4.02335 0 0

Powered by AerisWeather